Weather History for Laramie, WY

Change the Weather History Date:

Saturday, August 17, 2013

  Actual Average Record
Temperature  
Mean Temperature 68 °F 62 °F  
Max Temperature 87 °F 78 °F 88 °F (1948)
Min Temperature 49 °F 47 °F 33 °F (2009)
Degree Days  
Heating Degree Days 0 3  
Month to date heating degree days 45 40  
Since 1 June heating degree days 170 350  
Since 1 July heating degree days 67 109  
Cooling Degree Days 3 1  
Month to date cooling degree days 13 17  
Year to date cooling degree days 107 64  
Since 1 June cooling degree days 107 64  
Growing Degree Days 17 (Base 50)    
Moisture  
Dew Point 35 °F    
Average Humidity 48    
Maximum Humidity 86    
Minimum Humidity 9    
Precipitation  
Precipitation 0.00 in 0.03 in 0.84 in (1990)
Month to date precipitation 0.28 0.74  
Year to date precipitation 5.58 7.66  
Sea Level Pressure  
Sea Level Pressure 29.92 in    
Wind  
Wind Speed 8 mph (South)    
Max Wind Speed 21 mph    
Max Gust Speed 25 mph    
Visibility 9 miles    
Events      
T = Trace of Precipitation, MM = Missing Value Source: NWS Daily Summary

Daily Weather History Graph

Daily Weather History Graph

Search for Another Location

Airport:

Trip Planner

Search our weather history database for the weather conditions in past years. The results will help you decide how hot, cold, wet, or windy it might be!

Date:

Astronomy

Aug. 17, 2013 Rise Set
Actual Time 6:14 AM MDT 7:58 PM MDT
Civil Twilight 5:44 AM MDT 8:27 PM MDT
Nautical Twilight 5:08 AM MDT 9:03 PM MDT
Astronomical Twilight 4:30 AM MDT 9:41 PM MDT
Moon 5:17 PM MDT (8/17) 2:18 AM MDT (8/17)
Length of Visible Light 14h 43m
Length of Day
13h 44m
Waxing Gibbous, 85% of the Moon is Illuminated
Aug 17
Waxing Gibbous
Aug 20
Full
Aug 28
Last Quarter
Sep 5
New
Sep 12
First Quarter

Hourly Weather History & Observations

Time (MDT) Temp. Dew Point Humidity Pressure Visibility Wind Dir Wind Speed Gust Speed Precip Events Conditions
12:53 AM 59.0 °F 51.1 °F 75% 29.96 in 8.0 mi SSW 10.4 mph - N/A   Clear
1:53 AM 60.1 °F 52.0 °F 75% 29.94 in 8.0 mi South 12.7 mph - N/A   Clear
2:53 AM 55.9 °F 51.1 °F 84% 29.95 in 6.0 mi South 9.2 mph - N/A   Haze
3:53 AM 52.0 °F 46.0 °F 80% 29.96 in 8.0 mi SSW 3.5 mph - N/A   Clear
4:53 AM 50.0 °F 41.0 °F 71% 29.96 in 9.0 mi South 6.9 mph - N/A   Clear
5:53 AM 52.0 °F 36.0 °F 54% 29.95 in 10.0 mi South 8.1 mph - N/A   Clear
6:53 AM 52.0 °F 36.0 °F 54% 29.99 in 9.0 mi South 4.6 mph - N/A   Clear
7:53 AM 55.9 °F 42.1 °F 60% 30.01 in 8.0 mi SE 8.1 mph - N/A   Clear
8:53 AM 64.0 °F 37.0 °F 37% 30.00 in 10.0 mi South 5.8 mph - N/A   Clear
9:53 AM 73.0 °F 34.0 °F 24% 29.96 in 10.0 mi SE 5.8 mph - N/A   Clear
10:53 AM 78.1 °F 26.1 °F 15% 29.95 in 8.0 mi Variable 4.6 mph - N/A   Clear
11:53 AM 82.0 °F 21.9 °F 11% 29.94 in 7.0 mi Variable 4.6 mph - N/A   Clear
12:53 PM 82.9 °F 19.9 °F 10% 29.91 in 8.0 mi North 6.9 mph - N/A   Clear
1:53 PM 84.9 °F 19.9 °F 9% 29.88 in 9.0 mi NW 15.0 mph 18.4 mph N/A   Clear
2:53 PM 84.9 °F 21.0 °F 10% 29.88 in 10.0 mi North 11.5 mph - N/A   Clear
3:53 PM 84.0 °F 21.0 °F 10% 29.90 in 10.0 mi NNE 5.8 mph - N/A   Clear
4:53 PM 82.9 °F 23.0 °F 11% 29.89 in 10.0 mi North 8.1 mph - N/A   Clear
5:53 PM 82.0 °F 23.0 °F 11% 29.88 in 10.0 mi Calm Calm - N/A   Clear
6:53 PM 81.0 °F 25.0 °F 13% 29.88 in 10.0 mi Variable 3.5 mph - N/A   Partly Cloudy
7:53 PM 73.9 °F 28.0 °F 18% 29.90 in 10.0 mi SSW 4.6 mph - N/A   Clear
8:53 PM 70.0 °F 39.0 °F 32% 29.89 in 9.0 mi South 9.2 mph - N/A   Clear
9:53 PM 68.0 °F 43.0 °F 40% 29.87 in 9.0 mi SSE 11.5 mph - N/A   Clear
10:53 PM 66.0 °F 50.0 °F 56% 29.87 in 10.0 mi South 10.4 mph - N/A   Clear
11:53 PM 62.1 °F 52.0 °F 70% 29.87 in 10.0 mi South 10.4 mph - N/A   Clear